www.pogodaiklimat.ru

Погода и климат >> Архив погоды >> Швеция >> Vaderoarna


ПОГОДА в Vaderoarna

  • Прогноз погоды в Vaderoarna
  • Монитор погоды в Vaderoarna
  • Климат города

АРХИВ ПОГОДЫ в Vaderoarna

Время (UTC), дата Ветер
(напр.,м/с)
 
Видим.   Явления Облачность Т
(С)
Тd
(С)
f
(%)
Тe
(С)
Тes
(С)
Комфортность P
(гПа)
Po
(гПа)
Тmin
(С)
Tmax
(С)
R
(мм)
R24
(мм)
S
(см)
07 6.12 ЮВ 8
{9}
н/о н/о +4.0 +3.2 95 -2 -2 1013.6 1010.7
08 6.12 ЮВ 7
{9}
н/о н/о +4.2 +3.2 93 -2 -2 1013.4 1010.5
09 6.12 ЮВ 7
{9}
н/о н/о +3.9 +3.0 94 -2 -2 1013.2 1010.3
08 10.12 н/о
09 10.12
{2}
н/о н/о +5.6 -0.6 64 997.0 994.2
10 10.12 н/о н/о +5.7 -1.1 62 997.7 994.9
11 10.12 н/о н/о +5.8 -1.0 62 998.1 995.2
12 10.12 н/о н/о +6.1 -1.4 59 998.7 995.8
13 10.12 н/о н/о +6.6 +0.1 63 999.9 997.0
14 10.12 н/о н/о +6.6 -1.1 58 1000.7 997.8
15 10.12 н/о н/о +6.3 -0.9 60 1001.8 999.0
16 10.12 н/о н/о +6.5 -1.7 56 1002.1 999.2
17 10.12 н/о н/о +6.2 -1.5 58 1003.2 1000.4
18 10.12 н/о н/о +5.7 -1.8 58 1003.8 1000.9
19 10.12 н/о н/о +5.4 -0.8 64 1005.5 1002.6
20 10.12 н/о н/о +5.2 -0.1 69 1006.7 1003.8
21 10.12 н/о н/о +5.0 -0.9 66 1007.8 1004.9
22 10.12 н/о н/о +5.1 -0.7 66 1008.8 1005.9
23 10.12 н/о н/о +4.9 -0.4 69 1010.0 1007.1
00 11.12 н/о н/о +5.0 -0.7 67 1010.6 1007.7
01 11.12 н/о н/о +4.8 -0.1 71 1011.8 1008.9
02 11.12 н/о н/о +4.7 -0.5 69 1013.0 1010.1
03 11.12 н/о н/о +4.9 -1.1 65 1013.7 1010.8
04 11.12 н/о н/о +4.6 -0.5 69 1014.4 1011.5
05 11.12 н/о н/о +4.6 +0.1 73 1015.2 1012.2
06 11.12 н/о н/о +4.7 +0.2 73 1016.1 1013.2 +4.4 +5.8
07 11.12 н/о н/о +4.4 -0.7 69 1017.0 1014.0
08 11.12 н/о н/о +3.9 -0.9 71 1018.0 1015.1
09 11.12 н/о н/о +4.0 -0.7 71 1018.7 1015.8
10 11.12 н/о н/о +4.0 -0.9 70 1019.7 1016.7
11 11.12 н/о н/о +4.2 -0.2 73 1020.2 1017.3
12 11.12 н/о н/о +4.2 -0.6 71 1020.9 1017.9
13 11.12 н/о н/о +4.3 -0.6 70 1021.8 1018.8
14 11.12 н/о н/о +4.3 -0.8 69 1022.4 1019.5
15 11.12 С 7 н/о н/о +4.0 -0.9 70 -2 -2 1023.2 1020.3
16 11.12 С 8
{10}
н/о н/о +3.7 -1.1 71 -2 -2 1023.4 1020.5
17 11.12 С 8
{11}
н/о н/о +3.6 -0.6 74 -3 -3 1024.2 1021.3
18 11.12 СВ 8
{11}
н/о н/о +3.1 -1.2 73 -3 -3 1024.9 1021.9 +3.0 +4.7
19 11.12 СВ 7
{11}
н/о н/о +2.7 -1.0 77 -3 -3 1025.3 1022.3
20 11.12 СВ 6
{11}
н/о н/о +2.5 -0.9 78 -3 -3 1025.9 1022.9
21 11.12 СВ 7
{9}
н/о н/о +2.1 -1.0 80 -4 -4 1026.6 1023.6
22 11.12 В 5
{9}
н/о н/о +2.0 -0.1 86 -4 -4 1027.2 1024.2
23 11.12 СВ 7
{9}
н/о н/о +2.3 -0.2 84 -4 -4 1027.4 1024.4
00 12.12 В 6
{9}
н/о н/о +1.7 -0.8 83 -4 -4 1027.6 1024.6
01 12.12 В 5
{9}
н/о н/о +1.6 -0.7 85 -4 -4 1028.2 1025.2
02 12.12 С 3
{8}
н/о н/о +1.7 -0.7 84 -3 -3 1029.0 1026.0
03 12.12 С 4
{7}
н/о н/о +1.8 -0.7 83 -3 -3 1029.4 1026.4
04 12.12 СВ 4
{7}
н/о н/о +1.7 -0.7 84 -3 -3 1029.9 1026.9
05 12.12 В 5
{7}
н/о н/о +1.8 -1.0 82 -4 -4 1030.0 1027.0
06 12.12 СВ 4
{8}
н/о н/о +1.7 -1.0 82 -3 -3 1030.3 1027.3 +1.4 +3.1
07 12.12 СВ 5
{8}
н/о н/о +1.4 -1.0 84 -4 -4 1030.8 1027.8
08 12.12 В 5
{8}
н/о н/о +1.1 -1.2 85 -5 -5 1031.4 1028.4
09 12.12 В 3
{8}
н/о н/о +1.3 -1.1 84 -3 -3 1031.8 1028.8
10 12.12 В 3
{6}
н/о н/о +1.3 -1.6 81 -3 -3 1032.0 1029.0
11 12.12 В 3
{6}
н/о н/о +1.3 -1.2 83 -3 -3 1032.1 1029.1
12 12.12 СВ 2
{5}
н/о н/о +1.0 -1.7 82 -2 -2 1032.3 1029.3
13 12.12 СВ 3
{5}
н/о н/о +0.7 -2.0 82 -4 -4 1032.5 1029.5
14 12.12 СВ 3
{5}
н/о н/о +0.4 -2.1 83 -4 -4 1032.5 1029.5
15 12.12 В 4
{6}
н/о н/о +0.1 -2.2 84 -5 -5 1032.5 1029.5
16 12.12 В 4
{7}
н/о н/о 0.0 -1.9 87 -5 -5 1032.7 1029.7
17 12.12 СВ 5
{8}
н/о н/о -0.5 -2.7 85 -7 -7 1033.0 1029.9
18 12.12 СВ 4
{8}
н/о н/о +0.1 -2.6 82 -5 -5 1033.0 1030.0 -0.5 +1.8
19 12.12 СВ 6
{8}
н/о н/о -0.2 -2.9 82 -7 -7 1033.1 1030.1
20 12.12 СВ 7
{9}
н/о н/о -0.1 -2.5 84 -7 -7 1033.3 1030.3
21 12.12 СВ 6
{9}
н/о н/о -0.2 -2.7 83 -7 -7 1033.5 1030.5
22 12.12 В 5
{9}
н/о н/о -0.3 -2.7 84 -6 -6 1033.6 1030.6
23 12.12 В 5
{8}
н/о н/о -0.2 -3.2 80 -6 -6 1033.7 1030.7
00 13.12 В 4
{8}
н/о н/о -0.2 -3.0 81 -6 -6 1033.8 1030.8
01 13.12 В 4
{8}
н/о н/о -0.3 -2.8 83 -6 -6 1033.5 1030.5
02 13.12 СВ 5
{8}
н/о н/о -0.2 -2.9 82 -6 -6 1033.5 1030.5
03 13.12 В 5
{8}
н/о н/о 0.0 -3.1 80 -6 -6 1033.2 1030.2
04 13.12 СВ 6
{8}
н/о н/о +0.1 -1.8 87 -7 -7 1032.8 1029.8
05 13.12 СВ 5 н/о н/о +0.3 -1.6 87 -6 -6 1032.7 1029.7
06 13.12 СВ 5
{8}
н/о н/о +0.3 -2.7 80 -6 -6 1032.7 1029.7 -0.6 +0.4
07 13.12 СВ 6
{9}
н/о н/о +0.1 -2.3 84 -6 -6 1032.8 1029.8

 

Местоположение метеостанции Vaderoarna (Швеция): широта 58.58 долгота 11.07 высота над уровнем моря 24 м.

В архиве по умолчанию представлена погода в Vaderoarna за последнюю неделю. Архивные данные за месяц целиком и за предыдущие месяцы, начиная с января 2011 года, Вы можете получить, выбрав интересующий диапазон дат из раскрывающегося списка и нажав кнопку "Ввод!".


*Определитесь, кто Вы:
робот инопланетянин человек

Внимание! Время в таблицах - всемирное. Для получения местного времени необходимо прибавить поправку, которая в Vaderoarna равна 1 ч.

Смотрите также архив погоды в соседних городах и на ближайших метеорологических станциях:

Погода в Hud (Швеция) (22 км)
Погода в Nordkoster (Швеция) (36 км)
Погода в Maseskar (Швеция) (56 км)
Погода в Ferder Fyr (Норвегия) (59 км)
Погода в Stromtangen Fyr (Норвегия) (65 км)
Погода в Kroppefjall-Granan (Швеция) (66 км)
Погода в Svenner Fyr (Норвегия) (69 км)
Погода в Torpabron (Швеция) (77 км)
Погода в Sarpsborg (Норвегия) (78 км)
Погода в Bergarud (Швеция) (78 км)

Пояснения к столбцам:

Ветер - указаны скорость ветра в м/с - средняя за 10 мин, порывы в срок и между сроками (в фигурных скобках) и направление, откуда дует ветер: С - северный, СВ - северо-восточный, В - восточный, ЮВ - юго-восточный, Ю - южный, ЮЗ - юго-западный, З - западный, СЗ - северо-западный.
Видимость - горизонтальная дальность видимости в метрах или километрах. При видимости от 1 до 10 км при отсутствии осадков обычно наблюдается дымка, при ухудшении видимости до 1 км и менее - туман. В сухую погоду видимость может ухудшаться дымом, пылью или мглою.
Явления - указаны атмосферные явления, наблюдавшиеся в срок или в последний час перед сроком; фигурными скобками обозначены явления, наблюдавшиеся между сроками (за 1-3 часа до срока); квадратными скобками обозначены град или гололедные отложения с указанием их диаметра в мм.
Облачность - указаны через наклонную черту общая и нижняя облачность в баллах и высота нижней границы облаков в метрах; квадратными скобками обозначены формы облаков: Ci - перистые, Cs - перисто-слоистые, Cc - перисто-кучевые, Ac - высококучевые, As - высокослоистые, Sc - слоисто-кучевые, Ns - слоисто-дождевые, Cu - кучевые, Cb - кучево-дождевые. Подробнее классификацию облаков см. в Атласе облаков (PDF).
T - Температура воздуха - температура, измеренная на высоте 2 м над землей.
Td - Температура точки росы - температура, при понижении до которой содержащийся в воздухе водяной пар достигнет насыщения.
f - Относительная влажность воздуха - влажноcть воздуха, измеренная на высоте 2 м над землей.
Te - Эффективная температура - температура, которую ощущает одетый по сезону человек в тени. Характеристика душности погоды. При расчете учитывается влияние влажности воздуха и скорости ветра на теплоощущения человека.
Tes - Эффективная температура на солнце - температура, которую ощущает человек, с поправкой на солнечный нагрев. Характеристика знойности погоды. Зависит от высоты солнца над горизонтом, облачности и скорости ветра. Ночью, в пасмурную погоду, а также при ветре 12 м/с и более поправка равна нулю.
P - Атмосферное давление - приведенное к уровню моря атмосферное давление.
Po - Атмосферное давление - измеренное на уровне метеостанции атмосферное давление.
Tmin - Минимальная температура - минимум температуры воздуха на высоте 2 м над землей.
Tmax - Максимальная температура - максимум температуры воздуха на высоте 2 м над землей.
R - Количество осадков - Количество выпавших осадков за период времени, мм. При наведении курсора мыши на число - период времени, за который выпало указанное количество осадков.
R24 - Количество осадков - Количество выпавших осадков за 24 часа, мм.
S - Снежный покров - Высота снежного покрова, см. При наведении курсора мыши на число - состояние снежного покрова и степень покрытия местности в баллах.